Location: Laguna de la Cañada del Gallo
(40.3974°N, 5.2096°W)
Time: 01:51:06
(UTC+00:00)

CZ-4 R/B - Pass Details

Date: 18 April 2024
Orbit: 516 x 571 km, 97.6° (Epoch: 25 May)

Event Time Altitude Azimuth Distance (km) Brightness Sun altitude
Rises 19:29:53 0° 158° (SSE) 2,712 4.5 -5.6°
Reaches altitude 10° 19:32:02 10° 154° (SSE) 1,813 3.5 -6.0°
Maximum altitude 19:35:53 59° 75° (ENE) 628 1.4 -6.7°
Drops below altitude 10° 19:39:42 10° 356° (N) 1,794 4.3 -7.4°
Sets 19:41:49 0° 352° (N) 2,680 5.3 -7.8°
